WS Maaseik 1 Meer informatie WS Maaseik 1


WS Maaseik 2 Meer informatie WS Maaseik 2


Regen radar Meer informatie rain snow radar


Bezoek onze andere website:

Vorige versie
weerstation Maaseik


Bezoek ook eens deze sites:

Weerstation Geleen



We konden geen weer-waarchuwingen ophalen. Ga rechtstreeks naar de Meteoalarm site : www.meteoalarm.eu en controleer daar .

15 daagse weersverwachting Grenoble (FR)

  • Overzicht
  • Per uur
  • 15 dagen
  • Extra
  • Vergelijk
  • Kaarten
  • Dagkaart
  • Meer »
  • Info
  • Statistieken
  • Directe link
    Temp 6h Neerslag Wind  
 06:39     20:45    Daglengte: 14:06 Vandaag
20:00
22°
27.9 mm
1
 06:40     20:44    Daglengte: 14:04 Morgen
02:00
19°
 
1
08:00
19°
 
1
14:00
26°
 
2
20:00
25°
 
1
 06:41     20:42    Daglengte: 14:01 Dinsdag 16 Aug
02:00
19°
 
1
08:00
19°
 
1
14:00
30°
 
2
20:00
28°
 
4
 06:42     20:40    Daglengte: 13:58 Woensdag 17 Aug
02:00
22°
5.9 mm
1
08:00
21°
 
1
Locatie info
Region: Rhône-Alpes
Latitude: 45.1667°N
Longitude: 5.7167°E
221 masl
Temp/Neerslag /Baro Onweer/Dauwpunt
    Temp Baro 1h Neerslag Dauwpunt Wind UV Bewolking  
 06:39     20:45    Daglengte: 14:06 Vandaag
15:00
23°
1010.2 hPa 14.6 mm
55%
19.7°
1
Windvlaag: -0 m/s
26%
16:00
24°
1009.6 hPa 5.3 mm
76%
19.5°
1
Windvlaag: 0 m/s
85%
17:00
23°
1009.3 hPa 4.5 mm
82%
20.0°
1
Windvlaag: 0.2 m/s
14%
18:00
23°
1009.0 hPa
82%
19.8°
2
Windvlaag: 0.4 m/s
12%
19:00
23°
1009.2 hPa 3.6 mm
82%
19.8°
1
Windvlaag: 3.2 m/s
16%
20:00
22°
1009.6 hPa
78%
19.6°
1
Windvlaag: -0.1 m/s
30%
21:00
21°
1010.0 hPa
23%
18.9°
1
Windvlaag: -1.3 m/s
33%
22:00
21°
1010.6 hPa
18%
18.6°
1
Windvlaag: -0.1 m/s
29%
23:00
20°
1010.9 hPa
15%
18.3°
1
Windvlaag: -0.1 m/s
36%
 06:40     20:44    Daglengte: 14:04 Morgen
00:00
20°
1010.9 hPa
16%
18.0°
1
Windvlaag: -0.1 m/s
28%
01:00
20°
1011.0 hPa
23%
17.7°
1
Windvlaag: 0.9 m/s
60%
02:00
19°
1010.7 hPa
24%
17.2°
1
Windvlaag: 1.2 m/s
7%
03:00
19°
1010.5 hPa
26%
17.2°
1
Windvlaag: 1.5 m/s
10%
04:00
19°
1010.2 hPa
65%
16.9°
1
Windvlaag: 1.4 m/s
7%
05:00
18°
1010.0 hPa
27%
16.7°
1
Windvlaag: 1.8 m/s
4%
06:00
18°
1009.6 hPa
19%
16.5°
0
Windvlaag: 1.8 m/s
1%
07:00
18°
1009.7 hPa
18%
16.3°
1
Windvlaag: 0.8 m/s
1%
08:00
19°
1009.7 hPa
15%
16.7°
1
Windvlaag: 0.1 m/s
1%
09:00
20°
1009.7 hPa
21%
18.0°
0
Windvlaag: 0.6 m/s
42%
10:00
22°
1009.6 hPa
20%
18.7°
1
Windvlaag: 1.4 m/s
58%
11:00
23°
1009.3 hPa
23%
18.5°
1
Windvlaag: 0.5 m/s
59%
12:00
24°
1009.0 hPa
18%
17.3°
1
Windvlaag: -0.9 m/s
46%
13:00
26°
1008.7 hPa
14%
15.3°
1
Windvlaag: -3.1 m/s
50%
14:00
26°
1008.5 hPa
15%
13.8°
2
Windvlaag: -4.3 m/s
44%
15:00
26°
1008.2 hPa
16%
13.4°
2
Windvlaag: -4.2 m/s
58%
16:00
26°
1008.0 hPa
15%
13.0°
2
Windvlaag: -2.4 m/s
27%
17:00
27°
Voelt als: 26.8°
1007.7 hPa
14%
12.0°
2
Windvlaag: -1.3 m/s
1%
18:00
27°
Voelt als: 26.5°
1007.8 hPa
14%
10.4°
2
Windvlaag: -0.6 m/s
1%
19:00
26°
1007.9 hPa
14%
10.8°
1
Windvlaag: -1.5 m/s
10%
20:00
25°
1008.1 hPa
14%
14.6°
1
Windvlaag: -0.8 m/s
0%
21:00
23°
1008.6 hPa
14%
15.8°
1
Windvlaag: -0.8 m/s
1%
22:00
21°
1009.4 hPa
14%
15.1°
1
Windvlaag: -0.5 m/s
15%
23:00
20°
1009.9 hPa
14%
14.5°
1
Windvlaag: -0.8 m/s
23%
 06:41     20:42    Daglengte: 14:01 Dinsdag 16 Aug
00:00
20°
1010.2 hPa
14%
14.4°
1
Windvlaag: -0.5 m/s
19%
01:00
19°
1010.5 hPa
14%
14.5°
1
Windvlaag: -0.7 m/s
6%
02:00
19°
1010.4 hPa
14%
14.8°
1
Windvlaag: -0.7 m/s
6%
03:00
19°
1010.3 hPa
14%
15.1°
1
Windvlaag: -0.6 m/s
3%
04:00
18°
1010.3 hPa
14%
15.2°
1
Windvlaag: -0.2 m/s
2%
05:00
18°
1010.2 hPa
15%
15.2°
1
Windvlaag: -0.2 m/s
3%
06:00
18°
1010.1 hPa
14%
14.7°
1
Windvlaag: 0.1 m/s
2%
07:00
17°
1010.4 hPa
14%
14.3°
1
Windvlaag: 0.6 m/s
2%
08:00
19°
1010.8 hPa
14%
13.5°
1
Windvlaag: 0.8 m/s
1%
09:00
21°
1010.3 hPa
14%
13.7°
1
Windvlaag: 1.2 m/s
0%
10:00
23°
1010.3 hPa
14%
12.0°
1
Windvlaag: 1.2 m/s
0%
11:00
25°
1010.1 hPa
21%
9.1°
2
Windvlaag: 1.2 m/s
0%
12:00
27°
Voelt als: 26.5°
1009.6 hPa
21%
9.6°
2
Windvlaag: 1.1 m/s
0%
13:00
29°
Voelt als: 27.8°
1008.9 hPa
21%
9.5°
1
Windvlaag: 0.6 m/s
13%
14:00
30°
Voelt als: 28.9°
1008.4 hPa
21%
9.3°
2
Windvlaag: 0.6 m/s
21%
15:00
31°
Voelt als: 29.5°
1008.3 hPa
21%
8.8°
3
Windvlaag: -1.4 m/s
44%
16:00
31°
Voelt als: 29.6°
1007.8 hPa
22%
10.3°
4
Windvlaag: -3.3 m/s
36%
17:00
31°
Voelt als: 29.6°
1007.5 hPa
25%
10.8°
4
Windvlaag: -2.4 m/s
20%
18:00
31°
Voelt als: 29.7°
1006.8 hPa
21%
11.3°
4
Windvlaag: 4.1 m/s
14%
19:00
30°
Voelt als: 29.3°
1007.1 hPa
42%
12.6°
4
Windvlaag: 7.1 m/s
30%
20:00
28°
Voelt als: 27.5°
1007.6 hPa
37%
12.9°
4
Windvlaag: 7.1 m/s
27%
21:00
27°
1008.2 hPa
21%
13.7°
3
Windvlaag: 6.1 m/s
40%
22:00
26°
1008.5 hPa
26%
15.3°
2
Windvlaag: 5.1 m/s
71%
23:00
25°
1009.6 hPa
35%
16.7°
1
Windvlaag: 4.4 m/s
81%
 06:42     20:40    Daglengte: 13:58 Woensdag 17 Aug
00:00
24°
1010.3 hPa
35%
16.9°
2
Windvlaag: 4.4 m/s
79%
01:00
23°
1010.5 hPa
99%
17.0°
1
Windvlaag: 3.8 m/s
95%
02:00
22°
1010.1 hPa 5.9 mm
100%
17.1°
1
Windvlaag: -1.7 m/s
88%
03:00
21°
1009.8 hPa
94%
17.5°
2
Windvlaag: -4.2 m/s
68%
04:00
21°
1009.9 hPa
23%
17.7°
1
Windvlaag: -1.1 m/s
59%
05:00
21°
1010.4 hPa
27%
18.5°
1
Windvlaag: 3.5 m/s
78%
06:00
20°
1009.5 hPa
21%
17.7°
1
Windvlaag: 4.3 m/s
42%
07:00
20°
1009.7 hPa
21%
16.1°
1
Windvlaag: 2.3 m/s
4%
08:00
21°
1009.9 hPa
21%
13.8°
1
Windvlaag: 4.3 m/s
0%
09:00
22°
1009.7 hPa
21%
8.8°
2
Windvlaag: 11 m/s
48%
10:00
23°
1009.6 hPa
30%
6.9°
2
Windvlaag: 8 m/s
69%
11:00
23°
1010.4 hPa 5.9 mm
98%
5.7°
2
Windvlaag: 5.7 m/s
83%
12:00
24°
1009.9 hPa 5.9 mm
95%
6.3°
2
Windvlaag: 6.4 m/s
87% warningclass
13:00
24°
1009.2 hPa
90%
7.0°
2
Windvlaag: 7 m/s
66%
14:00
25°
1009.0 hPa
32%
11.1°
2
Windvlaag: 6.1 m/s
80%
Temp/Neerslag /Baro Onweer/Dauwpunt
    Temp Baro Neerslag Dauwpunt Wind Bewolking  
 06:39     20:45    Daglengte: 14:06 Vandaag
17:00
23°
1009.3 hPa 24.3 mm 20.0°
1
14%
20:00
22°
1009.6 hPa 3.6 mm 19.6°
1
30%
23:00
20°
1010.9 hPa   18.3°
1
36%
 06:40     20:44    Daglengte: 14:04 Morgen
02:00
19°
1010.7 hPa   17.2°
1
7%
05:00
18°
1010.0 hPa   16.7°
1
4%
08:00
19°
1009.7 hPa   16.7°
1
1%
11:00
23°
1009.3 hPa   18.5°
1
59%
14:00
26°
1008.5 hPa   13.8°
2
44%
17:00
27°
Voelt als: 26.8°
1007.7 hPa   12.0°
2
1%
20:00
25°
1008.1 hPa   14.6°
1
0%
23:00
20°
1009.9 hPa   14.5°
1
23%
 06:41     20:42    Daglengte: 14:01 Dinsdag 16 Aug
02:00
19°
1010.4 hPa   14.8°
1
6%
05:00
18°
1010.2 hPa   15.2°
1
3%
08:00
19°
1010.8 hPa   13.5°
1
1%
11:00
25°
1010.1 hPa   9.1°
2
0%
14:00
30°
Voelt als: 28.9°
1008.4 hPa   9.3°
2
21%
17:00
31°
Voelt als: 29.6°
1007.5 hPa   10.8°
4
20%
20:00
28°
Voelt als: 27.5°
1007.6 hPa   12.9°
4
27%
23:00
25°
1009.6 hPa   16.7°
1
81%
 06:42     20:40    Daglengte: 13:58 Woensdag 17 Aug
02:00
22°
1010.1 hPa 5.9 mm 17.1°
1
88%
05:00
21°
1010.4 hPa   18.5°
1
78%
08:00
21°
1009.9 hPa   13.8°
1
0%
11:00
23°
1010.4 hPa 5.9 mm 5.7°
2
83%
14:00
25°
1009.0 hPa 17.7 mm 11.1°
2
80%
17:00
22°
1009.7 hPa 34.3 mm 20.9°
2
1%
20:00
17°
1014.1 hPa 50.3 mm 16.8°
3
1%
23:00
17°
1014.8 hPa 63.6 mm 16.9°
1
1%
 06:44     20:39    Daglengte: 13:55 Donderdag 18 Aug
02:00
17°
1015.4 hPa 77.2 mm 16.6°
1
1%
05:00
16°
1013.2 hPa 78.5 mm 15.0°
0
1%
08:00
17°
1013.6 hPa 78.5 mm 15.7°
0
1%
11:00
22°
1013.8 hPa 78.5 mm 14.7°
2
0%
14:00
26°
1012.0 hPa 78.5 mm 14.3°
2
0%
17:00
24°
1012.1 hPa 79.1 mm 16.1°
3
1%
20:00
19°
1013.2 hPa 80.4 mm 17.4°
2
1%
23:00
16°
1015.1 hPa 81.4 mm 15.7°
1
1%
 06:45     20:37    Daglengte: 13:52 Vrijdag 19 Aug
02:00
16°
1015.8 hPa 81.9 mm 15.5°
1
1%
05:00
16°
1016.2 hPa 82.3 mm 15.7°
2
1%
08:00
16°
1016.9 hPa 82.3 mm 15.3°
2
1%
11:00
17°
1017.8 hPa 82.5 mm 16.6°
2
1%
14:00
21°
1017.8 hPa 82.8 mm 15.8°
3
1%
17:00
23°
1017.4 hPa 83.0 mm 16.1°
3
1%
20:00
20°
1018.5 hPa 83.4 mm 18.4°
2
1%
23:00
17°
1020.0 hPa 83.4 mm 16.2°
1
0%
 06:46     20:35    Daglengte: 13:49 Zaterdag 20 Aug
02:00
16°
1020.2 hPa 83.4 mm 15.5°
1
0%
05:00
16°
1020.1 hPa 83.4 mm 14.9°
1
0%
08:00
17°
1020.7 hPa 83.4 mm 15.8°
1
0%
11:00
24°
1020.4 hPa 83.4 mm 14.1°
3
0%
14:00
27°
1019.4 hPa 83.4 mm 13.4°
3
0%
20:00
22°
1020.3 hPa 83.4 mm 17.1°
2
0%
23:00
17°
1022.2 hPa 83.4 mm 16.8°
1
0%
 06:47     20:34    Daglengte: 13:47 Zondag 21 Aug
02:00
17°
1022.0 hPa 83.4 mm 16.8°
0
0%
05:00
17°
1021.8 hPa 83.4 mm 16.8°
1
1%
08:00
18°
1021.5 hPa 83.4 mm 16.7°
2
1%
11:00
22°
1021.2 hPa 83.5 mm 16.2°
2
1%
14:00
26°
1019.3 hPa 83.6 mm 13.6°
3
0%
17:00
26°
1018.4 hPa   12.5°
3
0%
20:00
20°
1019.4 hPa 167.1 mm 14.2°
2
0%
 06:48     20:32    Daglengte: 13:44 Maandag 22 Aug
02:00
15°
1020.2 hPa 167.1 mm 10.7°
1
0%
08:00
16°
1019.7 hPa 167.1 mm 11.8°
1
1%
14:00
26°
1018.3 hPa 167.1 mm 9.7°
3
1%
20:00
20°
1018.9 hPa 167.1 mm 12.4°
1
1%
 06:50     20:30    Daglengte: 13:40 Dinsdag 23 Aug
02:00
16°
1019.9 hPa 167.1 mm 10.1°
1
1%
08:00
17°
1019.9 hPa 167.1 mm 11.1°
1
1%
14:00
27°
Voelt als: 27.0°
1018.0 hPa 167.1 mm 11.0°
2
1%
20:00
21°
1018.3 hPa 167.1 mm 14.5°
2
1%
 06:51     20:28    Daglengte: 13:37 Woensdag 24 Aug
02:00
17°
1019.3 hPa 167.1 mm 12.4°
1
0%
08:00
18°
1019.6 hPa 167.1 mm 13.3°
1
0%
14:00
30°
Voelt als: 29.6°
1016.1 hPa 0.3 mm 15.7°
2
36%
20:00
25°
1016.2 hPa 1.2 mm 16.9°
1
41%
 06:52     20:27    Daglengte: 13:35 Donderdag 25 Aug
02:00
20°
1018.2 hPa 0.5 mm 15.0°
2
29%
08:00
20°
1018.2 hPa 0.1 mm 15.3°
1
28%
14:00
31°
Voelt als: 30.4°
1016.8 hPa 0.5 mm 15.4°
2
27%
20:00
25°
1016.9 hPa 1.1 mm 17.0°
1
41%
 06:53     20:25    Daglengte: 13:32 Vrijdag 26 Aug
02:00
20°
1018.6 hPa 0.4 mm 15.4°
2
38%
08:00
20°
1018.8 hPa 0.4 mm 15.9°
1
26%
14:00
31°
Voelt als: 30.3°
1017.2 hPa 0.3 mm 15.4°
2
30%
20:00
25°
1017.0 hPa 0.6 mm 16.8°
1
38%
 06:54     20:23    Daglengte: 13:29 Zaterdag 27 Aug
02:00
20°
1018.8 hPa 0.8 mm 15.5°
1
35%
08:00
20°
1018.7 hPa 0.2 mm 15.5°
1
25%
14:00
30°
Voelt als: 29.8°
1016.8 hPa 0.1 mm 15.0°
3
24%
20:00
24°
1016.5 hPa 0.5 mm 16.8°
1
43%
 06:56     20:21    Daglengte: 13:25 Zondag 28 Aug
02:00
19°
1018.3 hPa 0.4 mm 15.6°
1
38%
08:00
19°
1018.1 hPa 0.4 mm 15.8°
1
33%
14:00
30°
Voelt als: 29.4°
1016.2 hPa 0.3 mm 15.0°
2
26%
20:00
24°
1016.4 hPa 0.7 mm 16.1°
1
37%
 06:57     20:20    Daglengte: 13:23 Maandag 29 Aug
02:00
19°
1018.2 hPa 0.6 mm 15.2°
1
37%
08:00
19°
1018.0 hPa 0.4 mm 15.2°
1
34%
14:00
29°
Voelt als: 28.9°
1016.4 hPa 0.4 mm 15.2°
2
35%
  CAPE Lifted Index Hail Supercell Tornado SRH 3km CL BTM PRES CL TOP PRES Swiss DWD icon SMHI TS
 06:39     20:45    Daglengte: 14:06 Vandaag
15:00 167 J/kg -2.8 K 0 % 0 % 0 % 0 m²/s² 0 0 -2.62 2
16:00 0 J/kg 0.1 K 0 % 0 % 0 % 0 m²/s² 0 0 1.03 80
17:00 0 J/kg -0.5 K 0 % 0 % 0 % 0 m²/s² 0 0 2.56 80
18:00 30 J/kg -0.7 K 0 % 0 % 0 % 0 m²/s² 0 0 2.99 3
19:00 151 J/kg -1.7 K 0 % 0 % 0 % 0 m²/s² 0 0 0.49 80
20:00 394 J/kg -2.6 K 0 % 0 % 0 % 0 m²/s² 0 0 -1.1 3
21:00 465 J/kg -2.8 K 0 % 0 % 0 % 0 m²/s² 0 0 -1.3 3
22:00 414 J/kg -3.1 K 0 % 0 % 0 % 0 m²/s² 0 0 -1.12 3
23:00 148 J/kg -2.5 K 0 % 0 % 0 % 0 m²/s² 0 0 -0.85 3
 06:40     20:44    Daglengte: 14:04 Morgen
00:00 203 J/kg -2.8 K 0 % 0 % 0 % 0 m²/s² 0 0 -1.03 3
01:00 124 J/kg -3.4 K 0 % 0 % 0 % 0 m²/s² 0 0 -0.64 3
02:00 83 J/kg -3.0 K 0 % 0 % 0 % 0 m²/s² 0 0 0.63 2
03:00 25 J/kg -2.8 K 0 % 0 % 0 % 0 m²/s² 0 0 0.65 2
04:00 29 J/kg -3.4 K 0 % 0 % 0 % 0 m²/s² 0 0 0.23 2
05:00 77 J/kg -3.0 K 0 % 0 % 0 % 0 m²/s² 0 0 0.9 2
06:00 48 J/kg -2.2 K 0 % 0 % 0 % 0 m²/s² 0 0 2.6 2
07:00 56 J/kg -2.0 K 0 % 0 % 0 % 0 m²/s² 0 0 2.8 2
08:00 125 J/kg -2.2 K 0 % 0 % 0 % 0 m²/s² 0 0 2.99 2
09:00 499 J/kg -2.5 K 0 % 0 % 0 % 0 m²/s² 0 0 3.26 3
10:00 681 J/kg -2.9 K 0 % 0 % 0 % 0 m²/s² 0 0 3.04 3
11:00 784 J/kg -3.4 K 0 % 0 % 0 % 0 m²/s² 0 0 2.54 3
12:00 792 J/kg -4.1 K 0 % 0 % 0 % 0 m²/s² 0 0 1.69 3
13:00 815 J/kg -3.8 K 0 % 0 % 0 % 0 m²/s² 0 0 1.81 3
14:00 408 J/kg -2.4 K 0 % 0 % 0 % 0 m²/s² 0 0 2.4 3
15:00 77 J/kg -0.9 K 0 % 0 % 0 % 0 m²/s² 0 0 3.54 3
16:00 0 J/kg 0.2 K 0 % 0 % 0 % 0 m²/s² 0 0 4.55 3
17:00 0 J/kg 0.6 K 0 % 0 % 0 % 0 m²/s² 0 0 4.05 0
18:00 0 J/kg 0.5 K 0 % 0 % 0 % 0 m²/s² 0 0 3.11 1
19:00 0 J/kg 0.7 K 0 % 0 % 0 % 0 m²/s² 0 0 2.95 3
20:00 3 J/kg 1.1 K 0 % 0 % 0 % 0 m²/s² 0 0 3.35 1
21:00 0 J/kg 1.5 K 0 % 0 % 0 % 0 m²/s² 0 0 3.54 1
22:00 0 J/kg 2.3 K 0 % 0 % 0 % 0 m²/s² 0 0 4.64 2
23:00 0 J/kg 2.7 K 0 % 0 % 0 % 0 m²/s² 0 0 5.49 2
 06:41     20:42    Daglengte: 14:01 Dinsdag 16 Aug
00:00 0 J/kg 2.8 K 0 % 0 % 0 % 0 m²/s² 0 0 5.77 2
01:00 0 J/kg 2.6 K 0 % 0 % 0 % 0 m²/s² 0 0 5.63 2
02:00 0 J/kg 2.6 K 0 % 0 % 0 % 0 m²/s² 0 0 6.02 2
03:00 0 J/kg 2.5 K 0 % 0 % 0 % 0 m²/s² 0 0 5.83 1
04:00 0 J/kg 2.2 K 0 % 0 % 0 % 0 m²/s² 0 0 5.71 1
05:00 0 J/kg 2.4 K 0 % 0 % 0 % 0 m²/s² 0 0 6.39 1
06:00 0 J/kg 2.8 K 0 % 0 % 0 % 0 m²/s² 0 0 7.57 0
07:00 0 J/kg 3.4 K 0 % 0 % 0 % 0 m²/s² 0 0 8.71 0
08:00 0 J/kg 3.2 K 0 % 0 % 0 % 0 m²/s² 0 0 8.93 0
09:00 0 J/kg 2.9 K 0 % 0 % 0 % 0 m²/s² 0 0 8.96 0
10:00 0 J/kg 3.2 K 0 % 0 % 0 % 0 m²/s² 0 0 8.96 0
11:00 0 J/kg 2.8 K 0 % 0 % 0 % 0 m²/s² 0 0 7.99 1
12:00 0 J/kg 2.2 K 0 % 0 % 0 % 0 m²/s² 0 0 6.64 0
13:00 0 J/kg 1.9 K 0 % 0 % 0 % 0 m²/s² 0 0 5.59 1
14:00 1 J/kg 1.9 K 0 % 0 % 0 % 0 m²/s² 0 0 4.48 1
15:00 0 J/kg 1.6 K 0 % 0 % 0 % 0 m²/s² 0 0 3.28 3
16:00 42 J/kg 0.7 K 0 % 0 % 0 % 0 m²/s² 0 0 1.87 2
17:00 63 J/kg 0.0 K 0 % 0 % 0 % 0 m²/s² 0 0 1.38 2
18:00 38 J/kg -0.5 K 0 % 0 % 0 % 0 m²/s² 0 0 1.69 1
19:00 213 J/kg -1.9 K 0 % 0 % 0 % 0 m²/s² 0 0 0.53 3
20:00 163 J/kg -1.5 K 0 % 0 % 0 % 0 m²/s² 0 0 0.69 3
21:00 134 J/kg -2.1 K 0 % 0 % 0 % 0 m²/s² 0 0 -0.09 3
22:00 271 J/kg -3.6 K 0 % 0 % 0 % 0 m²/s² 0 0 -0.45 3
23:00 396 J/kg -3.4 K 0 % 0 % 0 % 0 m²/s² 0 0 -1.78 3
 06:42     20:40    Daglengte: 13:58 Woensdag 17 Aug
00:00 271 J/kg -3.6 K 0 % 0 % 0 % 0 m²/s² 0 0 -2.22 3
01:00 197 J/kg -3.4 K 0 % 0 % 0 % 0 m²/s² 0 0 -2.23 3
02:00 110 J/kg -1.9 K 0 % 0 % 0 % 0 m²/s² 0 0 -0.28 61
03:00 137 J/kg -0.8 K 0 % 0 % 0 % 0 m²/s² 0 0 0.52 3
04:00 152 J/kg -2.2 K 0 % 0 % 0 % 0 m²/s² 0 0 -0.94 3
05:00 0 J/kg -0.4 K 0 % 0 % 0 % 0 m²/s² 0 0 1.1 3
06:00 0 J/kg -0.2 K 0 % 0 % 0 % 0 m²/s² 0 0 1.3 3
07:00 0 J/kg 0.2 K 0 % 0 % 0 % 0 m²/s² 0 0 2.75 1
08:00 1 J/kg 1.1 K 0 % 0 % 0 % 0 m²/s² 0 0 3.5 2
09:00 1 J/kg 0.1 K 0 % 0 % 0 % 0 m²/s² 0 0 1.63 3
10:00 18 J/kg -0.6 K 0 % 0 % 0 % 0 m²/s² 0 0 0.78 3
11:00 195 J/kg -2.2 K 0 % 0 % 0 % 0 m²/s² 0 0 -1.21 61
12:00 461 J/kg -3.4 K 0 % 0 % 0 % 0 m²/s² 0 0 -2.44 61
13:00 763 J/kg -4.5 K 0 % 0 % 0 % 0 m²/s² 0 0 -3.63 61
14:00 1212 J/kg -5.9 K 0 % 0 % 0 % 0 m²/s² 0 0 -5.03 3
Temp Baro Wind Neerslag
  EWN Forecast EWN WRFDA DWD ICON FMI HIRLAM MET Norway GFS
 06:39     20:45    Daglengte: 14:06 Vandaag
17:00 22.9° 1009.3 hPa 1.4 m/s 24.3 mm 21.7° 1008.1 hPa 3.8 m/s 42.1 mm 24.0° 1009.0 hPa 2.3 m/s 13.9 mm 23.2° 1009.4 hPa 1.1 m/s 0.0 mm 25.9° 1009.4 hPa 1.1 m/s
20:00 22.0° 1009.6 hPa 0.6 m/s 3.6 mm 23.8° 1008.0 hPa 1.4 m/s 50.7 mm 21.9° 1009.8 hPa 0.9 m/s 0.6 mm 21.3° 1009.5 hPa 0.4 m/s 0.0 mm 22.3° 1009.7 hPa 0.2 m/s
23:00 20.1° 1010.9 hPa 0.8 m/s 0.0 mm 19.4° 1009.4 hPa 1.8 m/s 50.9 mm 20.3° 1010.1 hPa 0.8 m/s 0.0 mm 19.7° 1011.2 hPa 0.5 m/s 0.0 mm 18.6° 1010.7 hPa 1.5 m/s
 06:40     20:44    Daglengte: 14:04 Morgen
02:00 19.1° 1010.7 hPa 0.9 m/s 0.0 mm 19.8° 1008.3 hPa 3.0 m/s 51.1 mm 19.2° 1010.4 hPa 0.9 m/s 0.0 mm 17.7° 1011.5 hPa 0.7 m/s 0.0 mm 17.2° 1010.7 hPa 2.0 m/s
05:00 18.2° 1010.0 hPa 0.8 m/s 0.0 mm 19.2° 1008.2 hPa 2.2 m/s 51.2 mm 18.2° 1009.8 hPa 0.8 m/s 0.0 mm 17.6° 1011.1 hPa 0.1 m/s 0.0 mm 16.8° 1009.8 hPa 1.9 m/s
08:00 18.7° 1009.7 hPa 0.9 m/s 0.0 mm 21.0° 1008.2 hPa 1.9 m/s 51.2 mm 18.4° 1009.4 hPa 0.8 m/s 0.0 mm 18.4° 1010.7 hPa 0.2 m/s 0.0 mm 18.7° 1010.1 hPa 1.3 m/s
11:00 22.9° 1009.3 hPa 1.0 m/s 0.0 mm 24.2° 1008.0 hPa 1.3 m/s 51.2 mm 21.7° 1009.3 hPa 1.2 m/s 0.0 mm 22.9° 1009.4 hPa 0.1 m/s 0.0 mm 24.4° 1009.7 hPa 1.2 m/s
14:00 25.8° 1008.5 hPa 2.3 m/s 0.0 mm 27.5° 1007.1 hPa 1.9 m/s 51.2 mm 24.8° 1008.6 hPa 2.4 m/s 0.0 mm 28.3° 1008.4 hPa 1.6 m/s 0.0 mm 30.2° 1007.5 hPa 1.4 m/s
17:00 26.9° 1007.7 hPa 1.9 m/s 0.0 mm 28.8° 1006.1 hPa 3.5 m/s 51.2 mm 26.3° 1007.8 hPa 2.4 m/s 0.0 mm 29.1° 1007.7 hPa 1.8 m/s 0.0 mm 30.2° 1006.6 hPa 2.3 m/s
20:00 25.0° 1008.1 hPa 0.7 m/s 0.0 mm 26.6° 1006.0 hPa 1.3 m/s 51.2 mm 24.8° 1007.7 hPa 1.2 m/s 0.0 mm 25.5° 1008.6 hPa 0.6 m/s 0.0 mm 24.3° 1007.6 hPa 0.8 m/s
23:00 20.5° 1009.9 hPa 0.7 m/s 0.0 mm 22.0° 1007.7 hPa 2.2 m/s 51.2 mm 21.5° 1009.5 hPa 0.3 m/s 0.0 mm 19.6° 1011.0 hPa 0.3 m/s 0.0 mm 19.6° 1009.7 hPa 1.8 m/s
 06:41     20:42    Daglengte: 14:01 Dinsdag 16 Aug
02:00 19.1° 1010.4 hPa 1.0 m/s 0.0 mm 20.0° 1008.3 hPa 0.7 m/s 51.2 mm 20.0° 1010.0 hPa 1.1 m/s 0.0 mm 17.4° 1011.5 hPa 0.4 m/s 0.0 mm 18.3° 1010.3 hPa 1.8 m/s
05:00 18.1° 1010.2 hPa 0.8 m/s 0.0 mm 19.5° 1008.2 hPa 1.9 m/s 51.2 mm 18.8° 1009.7 hPa 1.4 m/s 0.0 mm 15.8° 1011.3 hPa 0.5 m/s 0.0 mm 17.6° 1010.2 hPa 1.8 m/s
08:00 18.6° 1010.8 hPa 0.8 m/s 0.0 mm 22.1° 1008.2 hPa 2.6 m/s 51.2 mm 18.8° 1010.3 hPa 1.3 m/s 0.0 mm 17.7° 1011.1 hPa 0.6 m/s 0.0 mm 20.0° 1010.0 hPa 1.5 m/s
11:00 24.9° 1010.1 hPa 1.6 m/s 0.0 mm 27.4° 1007.7 hPa 2.6 m/s 51.2 mm 24.9° 1010.2 hPa 1.5 m/s 0.0 mm 29.9° 1008.9 hPa 1.0 m/s
14:00 30.4° 1008.4 hPa 2.2 m/s 0.0 mm 30.8° 1008.3 hPa 2.4 m/s 51.2 mm 31.6° 1007.9 hPa 2.8 m/s 0.0 mm 33.6° 1007.4 hPa 2.1 m/s
17:00 31.0° 1007.5 hPa 4.3 m/s 0.0 mm 31.6° 1007.5 hPa 4.4 m/s 51.2 mm 31.7° 1006.5 hPa 5.6 m/s 0.0 mm 28.3° 1007.9 hPa 1.4 m/s
20:00 27.8° 1007.6 hPa 3.7 m/s 0.0 mm 28.8° 1007.5 hPa 4.1 m/s 51.2 mm 27.7° 1007.6 hPa 4.1 m/s 0.0 mm 22.8° 1009.9 hPa 2.4 m/s
23:00 24.6° 1009.6 hPa 1.2 m/s 0.0 mm 24.6° 1009.7 hPa 1.1 m/s 51.2 mm 25.5° 1008.3 hPa 0.7 m/s 0.0 mm 18.3° 1012.6 hPa 0.9 m/s
 06:42     20:40    Daglengte: 13:58 Woensdag 17 Aug
02:00 22.1° 1010.1 hPa 1.5 m/s 5.9 mm 22.2° 1009.7 hPa 0.4 m/s 51.5 mm 21.8° 1009.9 hPa 1.3 m/s 0.3 mm 18.5° 1012.2 hPa 1.2 m/s
05:00 20.5° 1010.4 hPa 1.0 m/s 0.0 mm 18.8° 1010.6 hPa 1.9 m/s 51.7 mm 20.7° 1009.2 hPa 0.9 m/s 0.0 mm 17.0° 1012.7 hPa 1.2 m/s
08:00 20.8° 1009.9 hPa 0.9 m/s 0.0 mm 21.2° 1009.1 hPa 2.1 m/s 51.7 mm 20.7° 1010.1 hPa 0.6 m/s 0.0 mm 18.2° 1012.7 hPa 1.9 m/s
11:00 23.4° 1010.4 hPa 2.2 m/s 5.9 mm 28.7° 1009.0 hPa 3.9 m/s 51.7 mm 22.1° 1010.7 hPa 1.8 m/s 0.3 mm 27.1° 1011.0 hPa 1.3 m/s
14:00 25.4° 1009.0 hPa 1.9 m/s 17.7 mm 29.5° 1008.4 hPa 3.2 m/s 52.6 mm 24.3° 1009.1 hPa 1.6 m/s 0.3 mm 31.9° 1009.2 hPa 1.7 m/s
17:00 21.9° 1009.7 hPa 1.9 m/s 34.3 mm 21.9° 1009.7 hPa 1.9 m/s 34.3 mm
20:00 17.3° 1014.1 hPa 2.8 m/s 50.3 mm 17.3° 1014.1 hPa 2.8 m/s 50.3 mm
23:00 17.1° 1014.8 hPa 1.3 m/s 63.6 mm 17.1° 1014.8 hPa 1.3 m/s 63.6 mm
 06:44     20:39    Daglengte: 13:55 Donderdag 18 Aug
02:00 17.0° 1015.4 hPa 1.3 m/s 77.2 mm 17.0° 1015.4 hPa 1.3 m/s 77.2 mm
05:00 16.0° 1013.2 hPa 0.2 m/s 78.5 mm 16.0° 1013.2 hPa 0.2 m/s 78.5 mm
08:00 16.8° 1013.6 hPa 0.4 m/s 78.5 mm 16.8° 1013.6 hPa 0.4 m/s 78.5 mm
11:00 22.2° 1013.8 hPa 2.0 m/s 78.5 mm 22.2° 1013.8 hPa 2.0 m/s 78.5 mm
14:00 25.8° 1012.0 hPa 2.5 m/s 78.5 mm 25.8° 1012.0 hPa 2.5 m/s 78.5 mm
17:00 23.7° 1012.1 hPa 2.7 m/s 79.1 mm 23.7° 1012.1 hPa 2.7 m/s 79.1 mm
20:00 19.4° 1013.2 hPa 2.0 m/s 80.4 mm 19.4° 1013.2 hPa 2.0 m/s 80.4 mm
23:00 16.4° 1015.1 hPa 0.7 m/s 81.4 mm 16.4° 1015.1 hPa 0.7 m/s 81.4 mm
 06:45     20:37    Daglengte: 13:52 Vrijdag 19 Aug
02:00 15.7° 1015.8 hPa 1.1 m/s 81.9 mm 15.7° 1015.8 hPa 1.1 m/s 81.9 mm
05:00 15.9° 1016.2 hPa 1.5 m/s 82.3 mm 15.9° 1016.2 hPa 1.5 m/s 82.3 mm
08:00 15.8° 1016.9 hPa 1.9 m/s 82.3 mm 15.8° 1016.9 hPa 1.9 m/s 82.3 mm
11:00 17.4° 1017.8 hPa 2.1 m/s 82.5 mm 17.4° 1017.8 hPa 2.1 m/s 82.5 mm
14:00 21.2° 1017.8 hPa 2.7 m/s 82.8 mm 21.2° 1017.8 hPa 2.7 m/s 82.8 mm
17:00 23.5° 1017.4 hPa 3.3 m/s 83.0 mm 23.5° 1017.4 hPa 3.3 m/s 83.0 mm
20:00 19.8° 1018.5 hPa 1.9 m/s 83.4 mm 19.8° 1018.5 hPa 1.9 m/s 83.4 mm
23:00 16.9° 1020.0 hPa 1.3 m/s 83.4 mm 16.9° 1020.0 hPa 1.3 m/s 83.4 mm
 06:46     20:35    Daglengte: 13:49 Zaterdag 20 Aug
02:00 16.1° 1020.2 hPa 1.3 m/s 83.4 mm 16.1° 1020.2 hPa 1.3 m/s 83.4 mm
05:00 15.5° 1020.1 hPa 1.4 m/s 83.4 mm 15.5° 1020.1 hPa 1.4 m/s 83.4 mm
08:00 17.0° 1020.7 hPa 1.4 m/s 83.4 mm 17.0° 1020.7 hPa 1.4 m/s 83.4 mm
11:00 23.9° 1020.4 hPa 3.1 m/s 83.4 mm 23.9° 1020.4 hPa 3.1 m/s 83.4 mm
14:00 26.7° 1019.4 hPa 3.3 m/s 83.4 mm 26.7° 1019.4 hPa 3.3 m/s 83.4 mm
20:00 21.8° 1020.3 hPa 2.0 m/s 83.4 mm 21.8° 1020.3 hPa 2.0 m/s 83.4 mm
23:00 17.5° 1022.2 hPa 0.9 m/s 83.4 mm 17.5° 1022.2 hPa 0.9 m/s 83.4 mm
 06:47     20:34    Daglengte: 13:47 Zondag 21 Aug
02:00 17.1° 1022.0 hPa 0.5 m/s 83.4 mm 17.1° 1022.0 hPa 0.5 m/s 83.4 mm
05:00 17.3° 1021.8 hPa 0.8 m/s 83.4 mm 17.3° 1021.8 hPa 0.8 m/s 83.4 mm
08:00 18.0° 1021.5 hPa 1.6 m/s 83.4 mm 18.0° 1021.5 hPa 1.6 m/s 83.4 mm
11:00 21.6° 1021.2 hPa 2.3 m/s 83.5 mm 21.6° 1021.2 hPa 2.3 m/s 83.5 mm
14:00 26.1° 1019.3 hPa 3.1 m/s 83.6 mm 26.1° 1019.3 hPa 3.1 m/s 83.6 mm
17:00 26.0° 1018.4 hPa 3.5 m/s 83.6 mm 26.0° 1018.4 hPa 3.5 m/s 83.6 mm
20:00 20.5° 1019.4 hPa 2.1 m/s 83.6 mm 20.5° 1019.4 hPa 2.1 m/s 83.6 mm
 06:48     20:32    Daglengte: 13:44 Maandag 22 Aug
02:00 15.3° 1020.2 hPa 1.2 m/s 83.6 mm 15.3° 1020.2 hPa 1.2 m/s 83.6 mm
08:00 15.6° 1019.7 hPa 0.9 m/s 83.6 mm 15.6° 1019.7 hPa 0.9 m/s 83.6 mm
14:00 25.5° 1018.3 hPa 2.9 m/s 83.6 mm 25.5° 1018.3 hPa 2.9 m/s 83.6 mm
20:00 19.8° 1018.9 hPa 1.4 m/s 83.6 mm 19.8° 1018.9 hPa 1.4 m/s 83.6 mm
 06:50     20:30    Daglengte: 13:40 Dinsdag 23 Aug
02:00 15.6° 1019.9 hPa 1.0 m/s 83.6 mm 15.6° 1019.9 hPa 1.0 m/s 83.6 mm
08:00 16.9° 1019.9 hPa 0.8 m/s 83.6 mm 16.9° 1019.9 hPa 0.8 m/s 83.6 mm
14:00 27.4° 1018.0 hPa 2.0 m/s 83.6 mm 27.4° 1018.0 hPa 2.0 m/s 83.6 mm
20:00 21.5° 1018.3 hPa 1.5 m/s 83.6 mm 21.5° 1018.3 hPa 1.5 m/s 83.6 mm
 06:51     20:28    Daglengte: 13:37 Woensdag 24 Aug
02:00 17.0° 1019.3 hPa 1.1 m/s 83.6 mm 17.0° 1019.3 hPa 1.1 m/s 83.6 mm
08:00 17.7° 1019.6 hPa 0.8 m/s 83.6 mm 17.7° 1019.6 hPa 0.8 m/s 83.6 mm
14:00 29.6° 1016.1 hPa 2.2 m/s 0.3 mm
20:00 24.5° 1016.2 hPa 1.0 m/s 1.2 mm
 06:52     20:27    Daglengte: 13:35 Donderdag 25 Aug
02:00 19.9° 1018.2 hPa 1.6 m/s 0.5 mm
08:00 20.2° 1018.2 hPa 1.3 m/s 0.1 mm
14:00 30.6° 1016.8 hPa 2.1 m/s 0.5 mm
20:00 25.0° 1016.9 hPa 0.9 m/s 1.1 mm
 06:53     20:25    Daglengte: 13:32 Vrijdag 26 Aug
02:00 20.1° 1018.6 hPa 1.5 m/s 0.4 mm
08:00 20.2° 1018.8 hPa 1.2 m/s 0.4 mm
14:00 30.5° 1017.2 hPa 2.4 m/s 0.3 mm
20:00 25.0° 1017.0 hPa 1.3 m/s 0.6 mm
 06:54     20:23    Daglengte: 13:29 Zaterdag 27 Aug
02:00 19.7° 1018.8 hPa 1.4 m/s 0.8 mm
08:00 19.8° 1018.7 hPa 1.2 m/s 0.2 mm
14:00 30.1° 1016.8 hPa 2.6 m/s 0.1 mm
20:00 24.4° 1016.5 hPa 1.2 m/s 0.5 mm
 06:56     20:21    Daglengte: 13:25 Zondag 28 Aug
02:00 19.5° 1018.3 hPa 1.2 m/s 0.4 mm
08:00 19.3° 1018.1 hPa 1.1 m/s 0.4 mm
14:00 29.6° 1016.2 hPa 2.4 m/s 0.3 mm
20:00 24.0° 1016.4 hPa 1.4 m/s 0.7 mm
 06:57     20:20    Daglengte: 13:23 Maandag 29 Aug
02:00 18.9° 1018.2 hPa 1.3 m/s 0.6 mm
08:00 19.0° 1018.0 hPa 1.2 m/s 0.4 mm
14:00 29.0° 1016.4 hPa 2.4 m/s 0.4 mm
FMI Hirlam - 7.5 km EWN WRFDA - 12 km DWD ICON - 7 km GFS - 25 km Basiskaart






























































Updatetijd (Europe/Brussels) Resolutie Lengte Stap
FMI Hirlam 14:15, 20:15, 02:15, 08:15 7.5 km 49h 1h
EWN WRFDA 10:15, 16:15, 22:15, 04:15 12 km 73h 1h
DWD ICON 11:45, 17:45, 23:45, 05:45 7 km 75h 1h
GFS 14:15, 20:15, 02:15, 08:15 25 km 237h 3h
30+ mm
25-30 mm
20-25 mm
15-20 mm
10-15 mm
6-10 mm
4-6 mm
2-4 mm
1-2 mm
0.5-1 mm
0.2-0.5 mm
0.1-0.2 mm
30+ mm
25-30 mm
20-25 mm
15-20 mm
10-15 mm
6-10 mm
4-6 mm
2-4 mm
1-2 mm
0.5-1 mm
0.2-0.5 mm
0.1-0.2 mm
Sneeuwval
Natte sneeuw
Hagel
Vorst
30+ mm
25-30 mm
20-25 mm
15-20 mm
10-15 mm
6-10 mm
4-6 mm
2-4 mm
1-2 mm
0.5-1 mm
0.2-0.5 mm
0.1-0.2 mm
Sneeuwval
Natte sneeuw
Hagel
Vorst
Onweer
50 mm
40 mm
30 mm
26 mm
22 mm
18 mm
14 mm
10 mm
9 mm
8 mm
7 mm
6 mm
5 mm
4.5 mm
4 mm
3.5 mm
3 mm
2.5 mm
2 mm
1.5 mm
1 mm
0.8 mm
0.6 mm
0.4 mm
0.2 mm
0.05 mm
35°
30°
25°
20°
15°
10°
-5°
-10°
-15°
-20°
-25°
-30°
-35°
33> m/s
29 m/s
25 m/s
21 m/s
17 m/s
14 m/s
11 m/s
8 m/s
5 m/s
3 m/s
0 m/s
2600 J/kg
2400 J/kg
2200 J/kg
2000 J/kg
1800 J/kg
1600 J/kg
1400 J/kg
1200 J/kg
1000 J/kg
800 J/kg
600 J/kg
400 J/kg
200 J/kg
70 dBZ
65 dBZ
60 dBZ
55 dBZ
50 dBZ
45 dBZ
40 dBZ
35 dBZ
30 dBZ
25 dBZ
20 dBZ
15 dBZ
10 dBZ
5 dBZ
-1 K
-2 K
-3 K
-4 K
-5 K
-6 K
-7 K
-8 K
-9 K
950 m²/s²
900 m²/s²
850 m²/s²
800 m²/s²
750 m²/s²
700 m²/s²
650 m²/s²
600 m²/s²
550 m²/s²
500 m²/s²
450 m²/s²
400 m²/s²
350 m²/s²
300 m²/s²
250 m²/s²
200 m²/s²
150 m²/s²
100 m²/s²
46 m/s
44 m/s
42 m/s
40 m/s
38 m/s
36 m/s
34 m/s
32 m/s
30 m/s
28 m/s
26 m/s
24 m/s
22 m/s
20 m/s
16 m/s
12 m/s
8 m/s
4 m/s
30 m/s
28 m/s
26 m/s
24 m/s
22 m/s
20 m/s
18 m/s
16 m/s
14 m/s
12 m/s
10 m/s
8 m/s
6 m/s
4 m/s
2 m/s
3.0
2.8
2.6
2.4
2.2
2.0
1.8
1.6
1.4
1.2
1.0
0.8
0.6
0.4
0.2
15
14
13
12
11
10
9
8
7
6
5
4
3
2
1
90%
80%
70%
60%
50%
40%
30%
20%
10%
42
40
38
36
34
32
30
28
26
24
22
20
18
16
14
12
90+ cm
80-90 cm
70-80 cm
60-70 cm
50-60 cm
40-50 cm
30-40 cm
20-30 cm
10-20 cm
1-10 cm
Sneeuwval
Natte sneeuw
Regen
>120 mm
115 mm
110 mm
105 mm
100 mm
95 mm
90 mm
85 mm
80 mm
75 mm
70 mm
65 mm
60 mm
55 mm
50 mm
45 mm
45 mm
40 mm
35 mm
30 mm
25 mm
20 mm
15 mm
10 mm
5 mm
0.1 mm
960 hPa
880 hPa
800 hPa
720 hPa
640 hPa
560 hPa
584 gpdm
568 gpdm
552 gpdm
536 gpdm
520 gpdm
504 gpdm
488 gpdm
Extreem zwaar Noodweer Kans op onweer
15% 15% 5% 50% 15%

Dag




Kaart






35°
30°
25°
20°
15°
10°
-5°
-10°
-15°
-20°
-25°
-30°
-35°
33> m/s
29 m/s
25 m/s
21 m/s
17 m/s
14 m/s
11 m/s
8 m/s
5 m/s
3 m/s
0 m/s
Extreem zwaar Noodweer Kans op onweer
15% 15% 5% 50% 15%
>120 mm
115 mm
110 mm
105 mm
100 mm
95 mm
90 mm
85 mm
80 mm
75 mm
70 mm
65 mm
60 mm
55 mm
50 mm
45 mm
45 mm
40 mm
35 mm
30 mm
25 mm
20 mm
15 mm
10 mm
5 mm
0.1 mm
Onweer risico kaarten - De groene en gele kleur geeft de kans op onweer aan binnen 40 km van een punt. Oranje, rood en violet hebben hetzelfde niveau zoals je het ziet op estofex.org waaronder ook de kans op hagel en supercells.

dBZ - dBZ staat voor decibel ten opzichte van Z.

Cape - Convective available potential energy (CAPE), is de totale hoeveelheid energie die een luchtpakketje nodig heeft om zover mogelijk te stijgen in de atmosfeer.

K Index - K-Index wordt berekend door de Vertical Totals (VT) en het verschil tussen de 850 hPa temperatuur en de 700 hPa dauwpuntsdepressie (Tdd 700) bij elkaar op te tellen.

TT Index - Convectie index wordt gebruikt voor het voorspellen van zware buien of onweer.

WRF - The Weather Research and Forecasting (WRF) is een volgende generatie mesoscale numeriek weersvoorspelling systeem ontworpen om zowel de operationele planning als het atmosferisch onderzoek te dienen. WRF is a cooperatie tussen het National Center for Atmospheric Research (NCAR), National Centers for Environmental Prediction (NCEP), Forecast Systems Laboratory (FSL), Air